When you browse on this site, cookies collect data to enhance your experience and personalize the content and advertising you see.
Visit our Privacy Policy to learn more. By continuing to use the site, you agree to this use of cookies and data.

Previsão horária em Abdrahmanovo

Hoje, 21 Setembro, Segunda-feira

Tempo Temperatura Precipitação Vento Pressão Humidade
00:00 +4°C° 0 mm 4 m/s 731 mmHg 92%
01:00 +4°C° 0 mm 4 m/s 731 mmHg 92%
02:00 +3°C° 0 mm 4 m/s 732 mmHg 93%
03:00 +3°C° 0 mm 4 m/s 732 mmHg 94%
04:00 +3°C° 0 mm 4 m/s 732 mmHg 95%
05:00 +3°C° 0 mm 4 m/s 733 mmHg 93%
06:00 +2°C° 0 mm 5 m/s 733 mmHg 91%
07:00 +3°C° 0 mm 5 m/s 734 mmHg 89%
08:00 +3°C° 0 mm 5 m/s 734 mmHg 88%
09:00 +3°C° 0 mm 5 m/s 735 mmHg 86%
10:00 +5°C° 0 mm 5 m/s 735 mmHg 84%
11:00 +5°C° 0.2 mm 5 m/s 735 mmHg 82%
12:00 +6°C° 0.2 mm 5 m/s 735 mmHg 79%
13:00 +6°C° 0.2 mm 5 m/s 736 mmHg 77%
14:00 +5°C° 0.2 mm 6 m/s 736 mmHg 74%
15:00 +5°C° 0.2 mm 6 m/s 736 mmHg 71%
16:00 +7°C° 0.2 mm 6 m/s 736 mmHg 69%
17:00 +5°C° 0.2 mm 6 m/s 736 mmHg 75%
18:00 +5°C° 0.2 mm 5 m/s 737 mmHg 82%
19:00 +3°C° 0.2 mm 5 m/s 737 mmHg 88%
20:00 +3°C° 0.4 mm 5 m/s 736 mmHg 90%
21:00 +4°C° 0.4 mm 4 m/s 736 mmHg 91%
22:00 +4°C° 0.4 mm 4 m/s 736 mmHg 92%
23:00 +5°C° 0.3 mm 5 m/s 736 mmHg 92%

Amanhã, 22 Setembro, Terça-feira

Tempo Temperatura Precipitação Vento Pressão Humidade
00:00 +4°C° 0.3 mm 6 m/s 735 mmHg 92%
01:00 +4°C° 0.3 mm 6 m/s 735 mmHg 91%
02:00 +4°C° 0.2 mm 6 m/s 735 mmHg 91%
03:00 +4°C° 0.2 mm 6 m/s 735 mmHg 91%
04:00 +5°C° 0.2 mm 6 m/s 735 mmHg 91%
05:00 +5°C° 0 mm 6 m/s 735 mmHg 90%
06:00 +4°C° 0 mm 6 m/s 736 mmHg 89%
07:00 +4°C° 0 mm 6 m/s 736 mmHg 87%
08:00 +5°C° 0 mm 6 m/s 737 mmHg 84%
09:00 +7°C° 0 mm 6 m/s 737 mmHg 82%
10:00 +8°C° 0 mm 6 m/s 738 mmHg 79%
11:00 +8°C° 0 mm 5 m/s 738 mmHg 77%
12:00 +8°C° 0 mm 5 m/s 738 mmHg 75%
13:00 +9°C° 0 mm 5 m/s 739 mmHg 74%
14:00 +9°C° 0 mm 5 m/s 739 mmHg 73%
15:00 +10°C° 0 mm 5 m/s 739 mmHg 72%
16:00 +10°C° 0 mm 5 m/s 739 mmHg 71%
17:00 +10°C° 0 mm 5 m/s 739 mmHg 73%
18:00 +9°C° 0 mm 5 m/s 738 mmHg 76%
19:00 +8°C° 0 mm 5 m/s 738 mmHg 79%
20:00 +8°C° 0 mm 5 m/s 738 mmHg 81%
21:00 +8°C° 0 mm 5 m/s 737 mmHg 82%
22:00 +8°C° 0 mm 5 m/s 737 mmHg 84%
23:00 +9°C° 0 mm 6 m/s 736 mmHg 84%

Depois de amanhã, 23 Setembro, Quarta-feira

Tempo Temperatura Precipitação Vento Pressão Humidade
00:00 +9°C° 0 mm 6 m/s 736 mmHg 83%
01:00 +10°C° 0 mm 7 m/s 735 mmHg 83%
02:00 +10°C° 0 mm 7 m/s 735 mmHg 84%
03:00 +10°C° 0 mm 7 m/s 734 mmHg 85%
04:00 +10°C° 0 mm 8 m/s 734 mmHg 86%
05:00 +10°C° 0 mm 8 m/s 734 mmHg 86%
06:00 +10°C° 0 mm 8 m/s 734 mmHg 85%
07:00 +11°C° 0 mm 8 m/s 734 mmHg 84%
08:00 +11°C° 0.1 mm 8 m/s 734 mmHg 81%
09:00 +11°C° 0.1 mm 8 m/s 734 mmHg 79%
10:00 +12°C° 0.1 mm 8 m/s 735 mmHg 77%
11:00 +12°C° 0.2 mm 8 m/s 735 mmHg 74%
12:00 +12°C° 0.2 mm 8 m/s 736 mmHg 71%
13:00 +12°C° 0.2 mm 8 m/s 736 mmHg 68%
14:00 +12°C° 0 mm 7 m/s 737 mmHg 65%
15:00 +12°C° 0 mm 7 m/s 738 mmHg 62%
16:00 +13°C° 0 mm 6 m/s 738 mmHg 60%
17:00 +12°C° 0 mm 5 m/s 739 mmHg 64%
18:00 +11°C° 0 mm 4 m/s 739 mmHg 68%
19:00 +9°C° 0 mm 3 m/s 740 mmHg 72%
20:00 +8°C° 0 mm 3 m/s 741 mmHg 74%
21:00 +8°C° 0 mm 3 m/s 741 mmHg 75%
22:00 +7°C° 0 mm 3 m/s 742 mmHg 77%
23:00 +7°C° 0 mm 3 m/s 742 mmHg 78%

24 Setembro, Quinta-feira

Tempo Temperatura Precipitação Vento Pressão Humidade
00:00 +5°C° 0 mm 3 m/s 743 mmHg 80%
01:00 +6°C° 0 mm 2 m/s 743 mmHg 82%
02:00 +5°C° 0 mm 2 m/s 744 mmHg 83%
03:00 +5°C° 0 mm 2 m/s 744 mmHg 84%
04:00 +5°C° 0 mm 2 m/s 745 mmHg 85%
05:00 +5°C° 0 mm 2 m/s 745 mmHg 86%
06:00 +6°C° 0 mm 1 m/s 746 mmHg 86%
07:00 +6°C° 0 mm 1 m/s 746 mmHg 87%
08:00 +7°C° 0 mm 1 m/s 747 mmHg 80%
09:00 +9°C° 0 mm 1 m/s 747 mmHg 74%
10:00 +11°C° 0 mm 1 m/s 747 mmHg 67%
11:00 +11°C° 0 mm 1 m/s 748 mmHg 64%
12:00 +12°C° 0 mm 1 m/s 748 mmHg 60%
13:00 +13°C° 0 mm 1 m/s 748 mmHg 57%
14:00 +14°C° 0 mm 1 m/s 748 mmHg 56%
15:00 +14°C° 0 mm 1 m/s 748 mmHg 55%
16:00 +14°C° 0 mm 1 m/s 748 mmHg 55%
17:00 +13°C° 0 mm 1 m/s 749 mmHg 60%
18:00 +10°C° 0 mm 0 m/s 749 mmHg 65%
19:00 +9°C° 0 mm 0 m/s 749 mmHg 70%
20:00 +10°C° 0 mm 1 m/s 749 mmHg 72%
21:00 +9°C° 0 mm 1 m/s 749 mmHg 73%
22:00 +9°C° 0 mm 1 m/s 750 mmHg 75%
23:00 +9°C° 0 mm 1 m/s 750 mmHg 76%

25 Setembro, Sexta-feira

Tempo Temperatura Precipitação Vento Pressão Humidade
00:00 +8°C° 0 mm 1 m/s 750 mmHg 77%
01:00 +8°C° 0 mm 1 m/s 750 mmHg 79%
02:00 +8°C° 0 mm 1 m/s 750 mmHg 79%
03:00 +8°C° 0 mm 1 m/s 750 mmHg 79%
04:00 +8°C° 0 mm 1 m/s 750 mmHg 79%
05:00 +8°C° 0 mm 1 m/s 751 mmHg 79%
06:00 +8°C° 0 mm 1 m/s 751 mmHg 80%
07:00 +8°C° 0 mm 1 m/s 751 mmHg 80%
08:00 +9°C° 0 mm 1 m/s 751 mmHg 74%
09:00 +10°C° 0 mm 2 m/s 751 mmHg 68%
10:00 +13°C° 0 mm 2 m/s 751 mmHg 62%
11:00 +14°C° 0 mm 2 m/s 751 mmHg 58%
12:00 +15°C° 0 mm 2 m/s 751 mmHg 53%
13:00 +17°C° 0 mm 2 m/s 751 mmHg 49%
14:00 +17°C° 0 mm 2 m/s 751 mmHg 50%
15:00 +18°C° 0 mm 1 m/s 751 mmHg 50%
16:00 +18°C° 0 mm 1 m/s 751 mmHg 51%
17:00 +15°C° 0 mm 1 m/s 751 mmHg 55%
18:00 +14°C° 0 mm 1 m/s 751 mmHg 60%
19:00 +12°C° 0 mm 1 m/s 751 mmHg 65%
20:00 +12°C° 0 mm 1 m/s 751 mmHg 66%
21:00 +11°C° 0 mm 1 m/s 752 mmHg 67%
22:00 +11°C° 0 mm 1 m/s 752 mmHg 69%
23:00 +10°C° 0 mm 1 m/s 752 mmHg 70%

26 Setembro, Sábado

Tempo Temperatura Precipitação Vento Pressão Humidade
00:00 +10°C° 0 mm 1 m/s 752 mmHg 72%
01:00 +10°C° 0 mm 1 m/s 752 mmHg 73%
02:00 +9°C° 0 mm 1 m/s 753 mmHg 75%
03:00 +9°C° 0 mm 1 m/s 753 mmHg 76%
04:00 +9°C° 0 mm 1 m/s 753 mmHg 77%
05:00 +9°C° 0 mm 1 m/s 753 mmHg 78%
06:00 +9°C° 0 mm 1 m/s 753 mmHg 79%
07:00 +9°C° 0 mm 1 m/s 754 mmHg 79%
08:00 +11°C° 0 mm 1 m/s 754 mmHg 73%
09:00 +13°C° 0 mm 1 m/s 754 mmHg 66%
10:00 +14°C° 0 mm 1 m/s 754 mmHg 60%
11:00 +16°C° 0 mm 1 m/s 754 mmHg 56%
12:00 +18°C° 0 mm 1 m/s 754 mmHg 51%
13:00 +19°C° 0 mm 1 m/s 754 mmHg 47%
14:00 +17°C° 0 mm 0 m/s 754 mmHg 47%
15:00 +17°C° 0 mm 0 m/s 754 mmHg 47%
16:00 +17°C° 0 mm 0 m/s 754 mmHg 47%
17:00 +15°C° 0 mm 0 m/s 754 mmHg 53%
18:00 +14°C° 0 mm 0 m/s 754 mmHg 59%
19:00 +13°C° 0 mm 1 m/s 754 mmHg 65%
20:00 +12°C° 0 mm 1 m/s 755 mmHg 67%
21:00 +12°C° 0 mm 1 m/s 755 mmHg 70%
22:00 +11°C° 0 mm 1 m/s 755 mmHg 73%
23:00 +10°C° 0 mm 0 m/s 755 mmHg 75%
Mostrar mais